Flag for USA

Past Weather in Brownsville, Texas, USA — Yesterday and Last 2 Weeks

Now
78 °F

Clear.


Feels Like: 80 °F
Forecast: 84 / 69 °F
Wind: 5 mph from North

Location: Brownsville / South Padre Island International Airport
Current Time: Sep 19, 2020 at 9:08:54 pm
Latest Report: Sep 19, 2020 at 7:53 pm
Visibility: 10 mi
Pressure29.93 "Hg
Humidity: 69%
Dew Point: 67 °F
Location of BrownsvilleLocation

Past Weather in Brownsville — Graph

°F

Brownsville Temperature Yesterday

Maximum temperature yesterday: 86 °F (at 12:53 pm)
Minimum temperature yesterday: 73 °F (at 2:53 am)
Average temperature yesterday: 77 °F

High & Low Weather Summary for the Past Weeks

 TemperatureHumidityPressure
High93 °F (Sep 8, 12:53 pm)96% (Sep 7, 7:53 am)30.14 "Hg (Sep 7, 7:53 am)
Low70 °F (Sep 11, 7:53 am)51% (Sep 19, 1:53 pm)29.72 "Hg (Sep 8, 5:53 pm)
Average80 °F83%29.93 "Hg
* Reported Sep 4 7:53 pm — Sep 19 7:53 pm, Brownsville. Weather by CustomWeather, © 2020

Note: Actual official high and low records may vary slightly from our data, if they occured in-between our weather recording intervals... More about our weather records

Brownsville Weather History for the Previous 24 Hours

Scroll right to see more
 ConditionsComfort  
Time TempWeatherWind HumidityBarometerVisibility
7:53 pm
Sat, Sep 19
78 °FClear.5 mph69%29.93 "Hg10 mi
6:53 pm81 °FSunny.10 mph60%29.93 "Hg10 mi
5:53 pm83 °FSunny.14 mph59%29.92 "Hg10 mi
4:53 pm84 °FSunny.13 mph55%29.91 "Hg10 mi
3:53 pm85 °FSunny.15 mph51%29.91 "Hg10 mi
2:53 pm85 °FSunny.16 mph55%29.92 "Hg10 mi
1:53 pm85 °FPassing clouds.17 mph51%29.95 "Hg10 mi
12:53 pm85 °FScattered clouds.14 mph57%29.96 "Hg10 mi
11:53 am84 °FPassing clouds.12 mph63%29.98 "Hg10 mi
10:53 am82 °FSunny.12 mph70%29.97 "Hg10 mi
9:53 am78 °FSunny.10 mph74%29.96 "Hg10 mi
8:53 am75 °FSunny.8 mph76%29.95 "Hg10 mi
7:53 am71 °FSunny.9 mph84%29.93 "Hg10 mi
6:53 am70 °FClear.7 mph87%29.92 "Hg10 mi
5:53 am72 °FClear.9 mph84%29.91 "Hg10 mi
4:53 am73 °FClear.9 mph88%29.90 "Hg10 mi
3:53 am74 °FClear.10 mph91%29.91 "Hg10 mi
2:53 am74 °FClear.10 mph91%29.92 "Hg10 mi
1:53 am75 °FClear.9 mph88%29.92 "Hg10 mi
12:53 am75 °FClear.8 mph94%29.93 "Hg10 mi
11:53 pm
Fri, Sep 18
76 °FClear.7 mph94%29.95 "Hg10 mi
10:53 pm76 °FClear.6 mph91%29.95 "Hg10 mi
9:53 pm76 °FClear.5 mph91%29.94 "Hg10 mi
Weather by CustomWeather, © 2020

See weather overview